Varadero, Cuba

12:58 AM CDT on August 21, 2018 (GMT -0400)
Juan G. Gomez International

Weather History for MUVR - August, 2018

Change the Weather History Date:

Saturday, August 11, 2018

  Actual Average Record
Temperature  
Mean Temperature 81 °F -  
Max Temperature 89 °F 86 °F 95 °F (2004)
Min Temperature 73 °F 70 °F 68 °F (2001)
Cooling Degree Days 16    
Growing Degree Days 31 (Base 50)    
Moisture  
Dew Point 75 °F    
Average Humidity 84    
Maximum Humidity 100    
Minimum Humidity 62    
Precipitation  
Precipitation 0.00 in - - ()
Sea Level Pressure  
Sea Level Pressure 30.05 in    
Wind  
Wind Speed 4 mph ()    
Max Wind Speed 13 mph    
Max Gust Speed -    
Visibility 5.5 miles    
Events      
Averages and records for this station are not official NWS values.
T = Trace of Precipitation, MM = Missing Value Source: Averaged Metar Reports

Daily Weather History Graph

Daily Weather History Graph

Search for Another Location

Airport or City:

Astronomy

Aug. 11, 2018 Rise Set
Actual Time 7:00 AM CDT 8:00 PM CDT
Civil Twilight 6:37 AM CDT 8:24 PM CDT
Nautical Twilight 6:09 AM CDT 8:52 PM CDT
Astronomical Twilight 5:40 AM CDT 9:20 PM CDT
Moon 7:07 AM CDT (8/11) 8:30 PM CDT (8/11)
Length of Visible Light 13h 47m
Length of Day
13h 00m
New Moon, 0% of the Moon is Illuminated
Aug 11
New Moon
Aug 18
First Quarter
Aug 26
Full
Sep 2
Last Quarter
Sep 9
New

Hourly Weather History & Observations

Time (CDT) Temp. Heat Index Dew Point Humidity Pressure Visibility Wind Dir Wind Speed Gust Speed Precip Events Conditions
12:50 AM 75.2 °F - 73.4 °F 94% 30.06 in 5.0 mi SE 4.6 mph - N/A   Unknown
1:50 AM 75.2 °F - 73.4 °F 94% 30.06 in 5.0 mi SSE 2.3 mph - N/A   Unknown
2:50 AM 73.4 °F - 73.4 °F 100% 30.04 in 5.6 mi Variable 1.2 mph - N/A   Unknown
3:50 AM 73.4 °F - 73.4 °F 100% 30.04 in 5.0 mi SSE 1.2 mph - N/A   Unknown
4:50 AM 73.4 °F - 73.4 °F 100% 30.01 in 5.0 mi South 1.2 mph - N/A   Unknown
5:50 AM 73.4 °F - 71.6 °F 94% 30.04 in 5.6 mi SSW 1.2 mph - N/A   Partly Cloudy
6:50 AM 73.4 °F - 73.4 °F 100% 30.04 in 5.0 mi SE 5.8 mph - N/A   Scattered Clouds
7:50 AM 73.4 °F - 73.4 °F 100% 30.04 in 5.6 mi SSE 3.5 mph - N/A   Partly Cloudy
8:50 AM 78.8 °F - 77.0 °F 94% 30.06 in 5.6 mi Variable 3.5 mph - N/A   Partly Cloudy
9:50 AM 84.2 °F 94.1 °F 77.0 °F 79% 30.06 in 5.6 mi Variable 3.5 mph - N/A   Scattered Clouds
10:50 AM 86.0 °F 95.1 °F 75.2 °F 70% 30.06 in 5.6 mi East 6.9 mph - N/A   Scattered Clouds
11:50 AM 87.8 °F 95.6 °F 73.4 °F 62% 30.06 in 5.6 mi ENE 5.8 mph - N/A   Mostly Cloudy
12:50 PM 87.8 °F 99.7 °F 77.0 °F 70% 30.09 in 5.6 mi North 10.4 mph - N/A   Scattered Clouds
1:50 PM 87.8 °F 99.7 °F 77.0 °F 70% 30.06 in 5.6 mi North 12.7 mph - N/A   Scattered Clouds
2:50 PM 87.8 °F 99.7 °F 77.0 °F 70% 30.04 in 5.6 mi North 10.4 mph - N/A   Scattered Clouds
3:50 PM 89.6 °F 102.2 °F 77.0 °F 66% 30.04 in 5.6 mi NNE 11.5 mph - N/A   Scattered Clouds
4:50 PM 87.8 °F 95.6 °F 73.4 °F 62% 30.04 in 5.6 mi NNE 12.7 mph - N/A   Scattered Clouds
5:50 PM 80.6 °F 84.6 °F 71.6 °F 74% 30.04 in 5.6 mi Variable 3.5 mph - N/A   Scattered Clouds
6:50 PM 84.2 °F 92.3 °F 75.2 °F 74% 30.04 in 5.6 mi North 8.1 mph - N/A   Scattered Clouds
7:50 PM 82.4 °F 89.5 °F 75.2 °F 79% 30.06 in 5.6 mi NNE 5.8 mph - N/A   Scattered Clouds
8:50 PM 78.8 °F - 75.2 °F 89% 30.06 in 5.6 mi East 3.5 mph - N/A   Scattered Clouds
10:50 PM 77.0 °F - 75.2 °F 94% 30.09 in 5.6 mi ESE 3.5 mph - N/A   Scattered Clouds
11:50 PM 75.2 °F - 73.4 °F 94% 30.06 in 5.6 mi South 3.5 mph - N/A   Partly Cloudy